Wind_Speed
28 26 26 25 23 21 20 19 19 17 15 14 13 12 11 9 8 8 8 8 8 9 8 6 5 6 6 5 4 4 4 4 4 4 4 4 5 6 7 8 9 10
28 27 26 26 24 23 21 19 19 17 15 13 12 11 12 13 10 9 9 8 8 9 8 6 5 5 5 6 5 5 4 4 4 4 4 4 4 5 6 7 8 9
28 27 27 26 25 24 22 19 18 17 14 13 10 10 11 11 11 11 8 7 8 9 8 8 6 5 5 6 6 6 4 4 5 4 4 4 4 5 5 6 7 9
29 28 28 26 24 23 21 19 17 16 15 13 11 11 11 10 11 12 10 8 8 8 10 9 7 6 5 5 6 6 5 5 5 5 5 5 5 6 7 7 8 9
29 28 27 26 24 23 21 18 18 17 16 13 12 12 13 12 12 12 12 10 7 6 10 10 8 7 5 5 6 6 5 5 5 6 6 5 5 5 6 8 9 10
29 27 27 26 25 24 21 19 19 19 17 15 15 14 14 13 12 11 11 9 5 6 10 9 8 8 5 6 6 5 5 4 4 5 5 5 7 6 5 8 9 10
30 27 27 26 25 24 22 20 19 19 19 18 17 16 14 13 12 10 9 8 4 5 8 8 9 8 6 6 7 6 5 3 4 6 4 4 8 8 6 8 9 10
29 27 26 26 25 24 23 20 18 18 19 19 16 15 15 14 12 10 9 7 4 5 7 8 9 8 7 8 8 6 5 4 4 6 6 5 7 9 8 8 9 10
28 25 24 25 25 24 23 20 18 17 17 17 15 14 15 13 11 10 10 8 6 6 7 8 9 8 8 8 7 7 7 5 4 5 7 7 7 9 8 8 9 11
28 25 24 25 24 24 23 21 19 16 15 15 14 14 14 12 10 10 10 8 8 7 7 9 9 9 9 8 7 8 7 6 3 2 6 8 8 9 8 8 10 12
28 24 24 25 25 25 24 21 18 15 14 14 14 14 13 11 11 11 10 9 8 7 8 9 8 8 9 7 7 8 7 6 5 3 5 8 9 9 8 9 11 12
28 25 24 25 26 25 23 21 20 18 16 16 15 14 13 12 12 12 10 9 8 8 8 9 8 8 8 7 7 8 7 7 7 5 5 6 7 9 8 8 10 10
26 25 24 24 25 25 22 20 21 19 17 17 16 14 14 13 13 11 10 8 8 7 7 8 8 7 8 7 7 7 8 8 8 8 6 6 6 7 8 9 9 9
26 25 24 22 23 23 20 18 18 17 16 16 15 14 14 13 12 12 11 9 8 8 7 8 9 9 9 8 7 7 8 8 9 9 8 8 7 6 7 9 9 8
26 25 25 23 22 21 19 16 16 16 16 15 14 15 15 12 11 12 11 10 10 9 9 11 12 11 11 10 9 9 8 8 9 8 8 9 9 8 8 8 7 8
26 25 26 24 23 21 19 18 17 16 16 15 14 16 15 12 12 12 10 10 11 10 12 13 12 12 12 11 11 11 10 9 8 7 7 8 7 7 9 8 6 8
28 26 26 25 24 22 20 19 19 17 17 16 16 16 14 13 13 12 10 10 11 12 13 13 12 13 14 12 11 11 11 10 9 7 6 6 5 5 7 6 5 5
29 27 27 27 26 25 23 21 19 18 18 18 18 18 17 16 16 15 13 13 14 14 13 12 11 12 14 13 12 12 11 10 10 9 7 6 3 3 4 3 3 4
28 27 25 26 27 27 25 24 22 20 19 19 20 20 19 18 18 17 15 14 13 12 11 10 9 11 14 14 12 11 10 10 10 8 8 6 3 2 3 3 4 5
25 25 23 23 25 26 26 27 26 23 20 19 19 19 18 17 16 15 13 11 9 9 7 6 7 9 12 14 14 11 9 9 8 6 7 7 5 6 7 8 9 9
21 23 23 22 22 23 24 26 26 23 21 19 19 18 17 15 13 12 11 7 6 6 5 5 7 7 7 9 10 8 5 6 4 5 7 8 7 7 8 10 13 13
18 20 20 19 19 20 21 22 22 22 20 21 20 19 17 14 10 7 6 4 3 3 2 3 4 4 3 5 6 4 4 6 8 11 10 9 9 11 12 12 13 15
17 18 18 18 19 19 18 18 19 20 20 21 21 18 14 11 7 5 5 5 5 5 5 4 3 3 4 6 8 9 10 11 14 15 10 8 10 12 13 13 11 12
16 16 15 15 15 15 16 16 17 18 18 19 18 16 12 12 13 14 15 15 14 14 12 10 8 9 10 11 12 14 15 16 17 15 11 10 11 12 12 12 11 10
15 14 14 13 14 15 15 14 14 14 13 13 13 11 9 10 13 15 16 17 17 18 18 16 15 14 14 14 13 13 14 15 15 15 13 11 10 10 10 10 9 8
16 14 13 13 14 14 13 12 12 11 10 9 8 7 5 5 6 7 7 9 11 12 13 14 15 15 13 12 12 12 13 13 13 13 13 11 8 6 6 7 7 7
Wind_Direction
191 187 182 178 178 177 179 180 165 156 163 171 186 188 179 189 184 164 168 162 155 162 164 165 176 177 171 169 165 149 151 168 170 171 185 192 195 199 200 198 197 198
189 184 181 178 177 177 180 178 164 160 168 178 191 192 188 195 183 176 190 180 174 190 184 169 182 184 173 172 164 154 160 162 165 177 174 172 184 189 191 190 190 190
185 181 182 178 176 176 175 169 162 164 170 176 183 183 188 193 183 181 184 175 191 199 181 176 184 173 166 170 161 162 168 156 163 179 160 155 171 173 176 182 185 186
181 181 181 177 174 174 173 167 161 164 172 177 176 177 182 180 176 174 159 165 200 189 172 181 173 153 163 160 152 168 178 162 166 175 167 167 168 164 167 173 177 182
181 181 179 174 172 172 174 171 166 167 174 177 175 178 183 177 172 171 162 173 205 175 161 172 157 144 150 145 150 174 177 167 169 172 172 166 160 166 166 163 170 174
179 177 175 172 169 169 170 168 169 173 173 175 177 178 180 175 168 170 166 171 192 156 154 163 150 136 140 144 135 123 131 152 164 158 169 165 158 167 169 167 173 167
176 174 171 168 166 167 166 164 169 175 173 175 181 179 174 166 164 168 165 166 168 136 144 151 141 136 142 129 110 108 124 140 140 141 169 185 161 160 170 174 173 163
171 171 169 166 165 165 161 160 171 179 176 176 179 177 167 156 163 168 158 159 154 130 140 143 138 140 129 114 122 136 124 103 126 150 177 188 159 155 170 172 161 156
167 165 166 165 162 159 156 162 176 181 176 172 169 166 156 152 170 168 151 155 154 144 149 143 140 141 128 131 151 139 114 126 164 178 175 164 145 149 163 166 154 152
165 162 162 160 156 155 160 170 176 175 171 166 160 158 154 158 175 165 151 159 155 154 157 147 150 149 139 150 156 133 131 153 155 138 147 144 141 147 155 160 154 152
161 159 159 158 156 159 166 171 168 164 165 162 158 159 156 159 167 159 158 164 156 155 154 150 158 154 144 152 153 144 148 139 108 80 122 142 152 155 159 165 161 158
156 154 158 160 160 164 169 168 163 162 164 162 159 160 159 156 154 155 163 163 154 153 152 154 159 151 147 155 155 152 150 139 136 130 122 136 147 150 156 161 160 162
158 154 157 162 166 170 170 168 169 170 168 164 157 155 156 150 149 158 163 154 149 152 153 153 149 146 154 160 157 157 156 153 150 143 133 126 127 134 139 138 142 150
162 156 157 164 169 168 164 165 167 164 159 156 154 151 147 146 153 158 151 146 151 151 149 151 155 161 164 159 157 160 161 160 153 147 145 140 136 136 130 134 144 150
161 159 159 162 162 158 157 155 150 147 148 150 150 146 141 145 154 147 141 150 154 149 154 163 169 173 167 160 162 160 156 158 154 153 155 147 144 146 135 137 153 158
165 162 159 157 154 153 151 146 143 146 150 147 144 142 142 148 148 139 141 152 149 154 171 175 177 178 171 168 168 158 152 153 149 153 156 145 147 159 147 144 170 183
166 162 159 156 153 151 148 147 148 147 143 141 141 142 143 145 142 137 143 152 154 168 180 181 181 181 178 178 174 162 158 157 151 148 149 142 149 166 155 154 187 217
165 162 158 154 152 151 148 147 148 145 144 146 146 144 143 145 149 149 151 161 172 179 185 188 188 185 184 183 176 171 169 165 156 151 152 155 158 158 161 180 218 260
164 163 157 156 157 154 149 147 147 149 153 155 153 152 152 154 159 160 155 158 169 178 188 194 191 191 192 187 180 180 179 173 168 163 158 159 174 198 209 235 243 243
165 163 161 161 161 157 154 152 152 154 155 156 157 159 158 155 156 159 156 151 157 167 175 170 160 172 185 188 187 186 184 178 175 178 176 172 190 219 227 237 240 234
165 167 165 163 162 163 161 155 152 152 151 152 154 151 147 143 140 147 149 143 145 154 146 132 131 136 157 179 185 186 195 204 221 254 235 215 222 239 245 247 247 249
159 163 163 164 166 167 164 157 153 153 153 154 154 150 148 147 144 148 157 157 159 168 164 145 140 129 130 164 184 211 233 231 261 285 276 257 258 259 259 261 258 260
151 156 160 166 169 166 165 163 161 161 162 162 161 160 162 171 188 219 237 244 251 260 265 262 237 216 211 210 224 247 260 263 275 285 278 260 263 264 263 268 271 273
144 150 153 159 163 163 166 168 169 169 171 174 177 179 186 202 219 232 239 242 248 257 263 266 264 245 235 243 251 254 262 268 269 265 251 244 255 262 264 269 276 282
139 147 151 153 155 156 158 163 169 170 173 179 187 193 203 219 227 232 234 235 236 243 251 254 253 248 246 255 260 256 253 253 249 244 241 242 252 263 268 270 274 280
110 118 126 133 139 143 143 146 150 150 151 158 164 169 180 199 216 222 227 231 231 235 244 246 243 242 239 239 241 240 237 237 238 240 241 239 242 259 272 268 271 285
Height
1508 1510 1510 1511 1513 1516 1519 1521 1524 1527 1529 1530 1530 1532 1534 1535 1536 1538 1539 1539 1540 1541 1542 1542 1543 1544 1544 1545 1546 1547 1548 1549 1550 1551 1552 1553 1554 1554 1555 1556 1557 1558
1506 1509 1510 1510 1512 1515 1518 1520 1523 1525 1527 1528 1529 1531 1532 1533 1535 1537 1538 1539 1540 1540 1541 1542 1542 1543 1544 1544 1545 1547 1548 1549 1550 1551 1552 1553 1553 1554 1555 1556 1557 1558
1504 1506 1508 1510 1511 1514 1517 1519 1521 1524 1526 1527 1528 1530 1531 1532 1534 1536 1537 1539 1539 1540 1541 1541 1542 1542 1543 1544 1545 1546 1548 1549 1550 1551 1552 1553 1554 1554 1555 1555 1556 1557
1501 1503 1505 1508 1511 1513 1516 1518 1520 1523 1525 1526 1527 1529 1530 1532 1534 1535 1537 1538 1538 1539 1540 1540 1541 1542 1543 1544 1545 1546 1548 1549 1551 1551 1552 1553 1554 1554 1555 1555 1556 1557
1500 1502 1503 1506 1509 1512 1514 1516 1519 1522 1524 1526 1527 1529 1530 1532 1534 1535 1537 1538 1537 1538 1539 1539 1541 1542 1543 1544 1545 1546 1547 1549 1550 1551 1552 1553 1553 1554 1555 1555 1556 1557
1499 1502 1504 1505 1508 1511 1513 1516 1519 1522 1524 1525 1527 1529 1531 1533 1534 1536 1536 1537 1537 1537 1538 1539 1540 1542 1544 1544 1545 1546 1548 1549 1550 1551 1552 1553 1554 1554 1554 1555 1556 1557
1500 1502 1505 1506 1508 1510 1513 1516 1519 1521 1523 1525 1527 1530 1532 1533 1535 1535 1536 1536 1537 1537 1538 1539 1541 1542 1544 1545 1546 1547 1548 1550 1550 1552 1553 1553 1554 1554 1555 1555 1556 1557
1502 1504 1506 1508 1509 1511 1514 1517 1519 1521 1523 1525 1528 1530 1532 1534 1535 1535 1536 1536 1537 1538 1539 1540 1541 1543 1544 1546 1547 1548 1549 1550 1551 1552 1553 1553 1554 1555 1555 1555 1556 1557
1504 1506 1508 1509 1510 1513 1515 1518 1520 1522 1524 1526 1528 1530 1532 1534 1534 1535 1536 1537 1538 1539 1540 1541 1542 1543 1545 1546 1548 1549 1550 1551 1552 1552 1553 1553 1554 1555 1555 1556 1557 1558
1505 1507 1508 1510 1511 1514 1516 1518 1520 1522 1525 1527 1529 1531 1532 1533 1534 1535 1536 1537 1538 1540 1540 1542 1543 1544 1545 1547 1548 1549 1551 1551 1552 1552 1553 1554 1554 1555 1556 1556 1557 1559
1504 1507 1509 1510 1512 1514 1516 1518 1521 1523 1525 1527 1529 1531 1532 1533 1534 1536 1537 1538 1539 1540 1541 1542 1544 1545 1546 1547 1548 1550 1551 1552 1552 1553 1553 1554 1555 1555 1556 1557 1558 1560
1504 1507 1510 1511 1513 1515 1516 1518 1521 1523 1525 1527 1529 1530 1532 1533 1535 1537 1538 1539 1540 1541 1542 1543 1544 1545 1547 1548 1549 1550 1551 1552 1553 1554 1554 1555 1556 1556 1557 1558 1559 1560
1505 1507 1510 1513 1515 1516 1517 1519 1521 1523 1525 1526 1528 1530 1531 1534 1535 1537 1538 1539 1541 1542 1543 1544 1545 1546 1547 1548 1549 1550 1551 1552 1554 1555 1555 1556 1557 1558 1558 1559 1560 1561
1505 1507 1510 1513 1516 1517 1518 1520 1521 1523 1525 1527 1528 1530 1532 1534 1536 1537 1539 1540 1542 1543 1544 1545 1546 1546 1547 1548 1549 1550 1552 1553 1554 1555 1556 1557 1558 1559 1560 1561 1561 1562
1506 1508 1510 1513 1516 1518 1520 1521 1522 1524 1525 1527 1528 1530 1533 1535 1536 1538 1539 1540 1542 1543 1544 1545 1545 1546 1547 1548 1549 1550 1552 1553 1555 1556 1557 1558 1559 1560 1561 1562 1562 1562
1508 1509 1511 1513 1515 1518 1520 1522 1523 1525 1525 1527 1529 1531 1533 1535 1537 1538 1539 1541 1542 1543 1543 1544 1545 1546 1547 1548 1550 1551 1552 1554 1555 1556 1557 1558 1559 1560 1562 1563 1563 1563
1508 1509 1511 1513 1515 1518 1520 1522 1524 1525 1526 1528 1530 1532 1534 1535 1537 1539 1540 1541 1542 1542 1543 1544 1545 1546 1547 1549 1550 1551 1553 1554 1555 1556 1558 1559 1560 1561 1562 1563 1563 1563
1507 1508 1510 1512 1514 1517 1519 1521 1523 1525 1526 1528 1530 1532 1533 1534 1536 1537 1538 1539 1540 1541 1543 1545 1546 1547 1547 1549 1550 1551 1553 1554 1555 1556 1557 1559 1561 1562 1563 1564 1564 1564
1507 1508 1510 1513 1514 1515 1517 1519 1522 1524 1525 1528 1530 1532 1533 1533 1535 1536 1537 1538 1540 1542 1543 1545 1546 1547 1548 1549 1550 1552 1553 1554 1555 1556 1557 1559 1561 1562 1563 1563 1563 1564
1509 1509 1511 1514 1514 1515 1517 1519 1521 1523 1525 1528 1530 1532 1533 1534 1536 1537 1539 1540 1542 1543 1544 1545 1546 1547 1548 1549 1550 1552 1553 1554 1555 1557 1557 1558 1560 1561 1561 1561 1561 1561
1509 1510 1511 1514 1515 1517 1518 1520 1521 1523 1526 1528 1530 1532 1533 1534 1536 1538 1540 1541 1543 1544 1545 1545 1546 1547 1548 1549 1550 1551 1552 1553 1555 1556 1558 1559 1559 1559 1560 1560 1559 1560
1509 1510 1512 1514 1516 1518 1519 1521 1523 1524 1526 1528 1530 1532 1533 1534 1536 1538 1540 1542 1543 1544 1545 1546 1546 1547 1548 1549 1550 1551 1552 1553 1554 1556 1557 1558 1558 1557 1558 1558 1558 1559
1509 1511 1512 1514 1516 1518 1519 1521 1523 1525 1527 1528 1530 1532 1533 1535 1537 1538 1540 1541 1543 1544 1545 1546 1546 1546 1547 1548 1550 1551 1552 1553 1554 1555 1557 1557 1556 1556 1557 1557 1557 1558
1510 1511 1513 1514 1516 1518 1519 1522 1524 1525 1527 1529 1530 1532 1533 1535 1537 1538 1539 1541 1542 1543 1544 1545 1546 1546 1547 1548 1549 1550 1551 1552 1553 1555 1556 1555 1554 1554 1556 1556 1556 1557
1512 1513 1514 1515 1517 1518 1520 1522 1524 1526 1528 1529 1531 1532 1533 1534 1536 1537 1538 1540 1541 1542 1543 1543 1544 1545 1546 1547 1548 1549 1550 1551 1552 1554 1554 1554 1554 1554 1554 1554 1555 1556
1514 1515 1516 1517 1518 1520 1522 1524 1525 1527 1528 1530 1531 1532 1533 1534 1535 1536 1538 1539 1540 1541 1542 1543 1543 1544 1545 1546 1547 1548 1549 1550 1551 1552 1553 1553 1553 1553 1552 1552 1553 1554